Location: Burgberg
(50.1428°N, 11.0671°E)
Time: 09:39:55
(UTC+00:00)

STARLINK-80 - Pass Details

Date: 26 January 2020
Orbit: 491 x 495 km, 53.0° (Epoch: 16 February)

Event Time Altitude Azimuth Distance (km) Brightness Sun altitude
Exits shadow 05:10:26 37° 308° (NW) 782 3.9 -17.1°
Maximum altitude 05:11:39 57° 7° (N) 588 3.7 -16.9°
Drops below altitude 10° 05:15:25 10° 87° (E) 1,685 7.3 -16.4°
Sets 05:17:37 0° 92° (E) 2,565 8.8 -16.0°
